Location: Mahannah Oil Field
(37.4664°N, 96.6003°W)
Time: 08:32:18
(UTC+00:00)

Vanguard 3 - Pass Details

Date: 24 January 2021
Orbit: 508 x 3261 km, 33.3° (Epoch: 24 February)

Event Time Altitude Azimuth Distance (km) Brightness Sun altitude
Exits shadow 10:28:49 60° 152° (SSE) 1,531 8.4 -37.0°
Drops below altitude 10° 10:39:46 10° 89° (E) 4,611 11.8 -34.8°
Sets 10:44:30 0° 86° (E) 6,060 12.7 -33.9°
